User: anonymous   Login
Location: Haram ta Haram Freeway
(35.0583°N, 51.4202°E)
Time: 07:19:14
(UTC+04:30)
Language:

CAS-4A - Orbit

View from above orbital plane
View from above orbital plane
View from above satellite
View from above satellite

Ground track
Ground track

The orbit data is extracted from the following two-line orbital elements,

1 42761U 17034D   20192.65842700  .00000123  00000-0  20898-4 0  9998
2 42761  43.0198 258.8424 0010691 185.3515 310.9998 15.09921022169472
Epoch (UTC): 10 July 2020 15:48:08
Eccentricity: 0.0010691
inclination: 43.0198°
perigee height: 529 km
apogee height: 544 km
right ascension of ascending node: 258.8424°
argument of perigee: 185.3515°
revolutions per day: 15.09921022
mean anomaly at epoch: 310.9998°
orbit number at epoch: 16947

The dashed part of the orbit path shows where the satellite is in the earth's shadow,  

DLR